Météo par heure à Aalten

Ce jour, 3 Décembre, Jeudi

Heure Température Précipitation Vent Pression Humidité
00:00 +4°C° 0 mm 4 m/s 753 mmHg 86%
01:00 +4°C° 0 mm 4 m/s 753 mmHg 87%
02:00 +4°C° 0 mm 4 m/s 752 mmHg 89%
03:00 +4°C° 0 mm 4 m/s 751 mmHg 90%
04:00 +4°C° 0 mm 4 m/s 750 mmHg 90%
05:00 +4°C° 0 mm 4 m/s 750 mmHg 90%
06:00 +3°C° 0 mm 4 m/s 749 mmHg 90%
07:00 +3°C° 0.2 mm 5 m/s 748 mmHg 90%
08:00 +3°C° 0.2 mm 5 m/s 748 mmHg 90%
09:00 +3°C° 0.2 mm 6 m/s 747 mmHg 90%
10:00 +3°C° 0.3 mm 6 m/s 747 mmHg 90%
11:00 +3°C° 0.3 mm 6 m/s 746 mmHg 89%
12:00 +4°C° 0.3 mm 6 m/s 745 mmHg 88%
13:00 +4°C° 0.4 mm 6 m/s 744 mmHg 89%
14:00 +4°C° 0.4 mm 6 m/s 743 mmHg 89%
15:00 +3°C° 0.4 mm 6 m/s 743 mmHg 89%
16:00 +3°C° 0.5 mm 6 m/s 742 mmHg 89%
17:00 +3°C° 0.5 mm 7 m/s 741 mmHg 89%
18:00 +3°C° 0.5 mm 7 m/s 740 mmHg 89%
19:00 +3°C° 0.4 mm 7 m/s 740 mmHg 89%
20:00 +3°C° 0.4 mm 7 m/s 739 mmHg 88%
21:00 +2°C° 0.4 mm 8 m/s 738 mmHg 88%
22:00 +2°C° 0.1 mm 8 m/s 738 mmHg 85%
23:00 +2°C° 0.1 mm 8 m/s 737 mmHg 82%

Demain, 4 Décembre, Vendredi

Heure Température Précipitation Vent Pression Humidité
00:00 +2°C° 0.1 mm 8 m/s 736 mmHg 79%
01:00 +4°C° 0 mm 8 m/s 735 mmHg 79%
02:00 +4°C° 0 mm 8 m/s 735 mmHg 79%
03:00 +4°C° 0 mm 8 m/s 734 mmHg 80%
04:00 +5°C° 0 mm 8 m/s 734 mmHg 79%
05:00 +5°C° 0 mm 8 m/s 734 mmHg 79%
06:00 +5°C° 0 mm 8 m/s 734 mmHg 79%
07:00 +5°C° 0 mm 7 m/s 734 mmHg 79%
08:00 +5°C° 0 mm 7 m/s 734 mmHg 79%
09:00 +5°C° 0 mm 6 m/s 735 mmHg 79%
10:00 +7°C° 0.1 mm 6 m/s 735 mmHg 76%
11:00 +7°C° 0.1 mm 6 m/s 736 mmHg 73%
12:00 +7°C° 0.1 mm 6 m/s 736 mmHg 71%
13:00 +7°C° 0 mm 5 m/s 737 mmHg 73%
14:00 +6°C° 0 mm 5 m/s 737 mmHg 75%
15:00 +6°C° 0 mm 4 m/s 737 mmHg 77%
16:00 +5°C° 0 mm 4 m/s 737 mmHg 79%
17:00 +5°C° 0 mm 4 m/s 738 mmHg 81%
18:00 +4°C° 0 mm 4 m/s 738 mmHg 83%
19:00 +4°C° 0 mm 3 m/s 739 mmHg 85%
20:00 +3°C° 0 mm 3 m/s 739 mmHg 87%
21:00 +4°C° 0 mm 2 m/s 740 mmHg 88%
22:00 +4°C° 0 mm 2 m/s 740 mmHg 89%
23:00 +3°C° 0 mm 2 m/s 740 mmHg 90%

Après-demain, 5 Décembre, Samedi

Heure Température Précipitation Vent Pression Humidité
00:00 +3°C° 0 mm 2 m/s 741 mmHg 91%
01:00 +3°C° 0 mm 2 m/s 741 mmHg 91%
02:00 +3°C° 0 mm 2 m/s 741 mmHg 90%
03:00 +3°C° 0 mm 2 m/s 741 mmHg 90%
04:00 +2°C° 0 mm 2 m/s 741 mmHg 90%
05:00 +3°C° 0 mm 1 m/s 741 mmHg 91%
06:00 +3°C° 0 mm 1 m/s 742 mmHg 91%
07:00 +3°C° 0 mm 1 m/s 742 mmHg 90%
08:00 +3°C° 0 mm 1 m/s 743 mmHg 89%
09:00 +4°C° 0 mm 1 m/s 743 mmHg 88%
10:00 +5°C° 0 mm 1 m/s 743 mmHg 84%
11:00 +5°C° 0 mm 1 m/s 743 mmHg 80%
12:00 +6°C° 0 mm 1 m/s 744 mmHg 77%
13:00 +6°C° 0 mm 1 m/s 744 mmHg 79%
14:00 +5°C° 0 mm 1 m/s 744 mmHg 82%
15:00 +5°C° 0 mm 1 m/s 744 mmHg 85%
16:00 +4°C° 0 mm 1 m/s 744 mmHg 85%
17:00 +4°C° 0 mm 1 m/s 745 mmHg 86%
18:00 +4°C° 0 mm 1 m/s 745 mmHg 86%
19:00 +4°C° 0 mm 1 m/s 745 mmHg 87%
20:00 +4°C° 0 mm 1 m/s 746 mmHg 88%
21:00 +4°C° 0 mm 1 m/s 746 mmHg 88%
22:00 +3°C° 0 mm 1 m/s 746 mmHg 89%
23:00 +3°C° 0 mm 1 m/s 746 mmHg 89%

6 Décembre, Dimanche

Heure Température Précipitation Vent Pression Humidité
00:00 +3°C° 0 mm 1 m/s 746 mmHg 90%
01:00 +1°C° 0 mm 2 m/s 746 mmHg 90%
02:00 +1°C° 0 mm 2 m/s 747 mmHg 91%
03:00 +1°C° 0 mm 2 m/s 747 mmHg 91%
04:00 +1°C° 0 mm 2 m/s 747 mmHg 91%
05:00 +1°C° 0 mm 2 m/s 747 mmHg 91%
06:00 +1°C° 0 mm 2 m/s 747 mmHg 91%
07:00 +1°C° 0 mm 2 m/s 748 mmHg 89%
08:00 +2°C° 0 mm 2 m/s 748 mmHg 87%
09:00 +2°C° 0 mm 2 m/s 749 mmHg 85%
10:00 +3°C° 0 mm 2 m/s 749 mmHg 83%
11:00 +4°C° 0 mm 2 m/s 749 mmHg 80%
12:00 +5°C° 0 mm 2 m/s 749 mmHg 77%
13:00 +3°C° 0 mm 3 m/s 749 mmHg 81%
14:00 +2°C° 0 mm 3 m/s 749 mmHg 84%
15:00 +2°C° 0 mm 3 m/s 749 mmHg 87%
16:00 +2°C° 0 mm 3 m/s 749 mmHg 88%
17:00 +2°C° 0 mm 3 m/s 749 mmHg 89%
18:00 +2°C° 0 mm 3 m/s 749 mmHg 91%
19:00 +1°C° 0 mm 4 m/s 748 mmHg 90%
20:00 +1°C° 0 mm 4 m/s 748 mmHg 90%
21:00 +1°C° 0 mm 5 m/s 748 mmHg 90%
22:00 +1°C° 0.9 mm 5 m/s 747 mmHg 91%
23:00 +2°C° 0.9 mm 6 m/s 747 mmHg 92%

7 Décembre, Lundi

Heure Température Précipitation Vent Pression Humidité
00:00 +2°C° 0.9 mm 7 m/s 746 mmHg 93%
01:00 +2°C° 1.4 mm 7 m/s 745 mmHg 94%
02:00 +2°C° 1.4 mm 7 m/s 745 mmHg 94%
03:00 +3°C° 1.4 mm 7 m/s 744 mmHg 94%
04:00 +3°C° 0.8 mm 7 m/s 744 mmHg 94%
05:00 +3°C° 0.8 mm 6 m/s 744 mmHg 94%
06:00 +3°C° 0.8 mm 6 m/s 744 mmHg 95%
07:00 +3°C° 0.7 mm 5 m/s 743 mmHg 96%
08:00 +5°C° 0.7 mm 4 m/s 743 mmHg 96%
09:00 +5°C° 0.7 mm 3 m/s 743 mmHg 97%
10:00 +5°C° 0.6 mm 3 m/s 743 mmHg 96%
11:00 +6°C° 0.6 mm 2 m/s 742 mmHg 95%
12:00 +6°C° 0.6 mm 2 m/s 742 mmHg 94%
13:00 +6°C° 0.5 mm 2 m/s 742 mmHg 94%
14:00 +6°C° 0.5 mm 2 m/s 742 mmHg 95%
15:00 +6°C° 0.5 mm 2 m/s 742 mmHg 95%
16:00 +5°C° 0.7 mm 3 m/s 742 mmHg 95%
17:00 +5°C° 0.7 mm 4 m/s 742 mmHg 95%
18:00 +4°C° 0.7 mm 4 m/s 742 mmHg 95%
19:00 +3°C° 1.3 mm 6 m/s 743 mmHg 95%
20:00 +2°C° 1.3 mm 8 m/s 743 mmHg 94%
21:00 +2°C° 1.3 mm 9 m/s 744 mmHg 93%
22:00 +2°C° 2.1 mm 10 m/s 744 mmHg 93%
23:00 +2°C° 2.1 mm 11 m/s 745 mmHg 92%

8 Décembre, Mardi

Heure Température Précipitation Vent Pression Humidité
00:00 +2°C° 2.1 mm 11 m/s 745 mmHg 91%
01:00 +2°C° 0.8 mm 10 m/s 746 mmHg 90%
02:00 +2°C° 0.8 mm 10 m/s 747 mmHg 88%
03:00 +2°C° 0.8 mm 9 m/s 747 mmHg 86%
04:00 +2°C° 0 mm 8 m/s 748 mmHg 85%
05:00 +3°C° 0 mm 7 m/s 749 mmHg 85%
06:00 +3°C° 0 mm 6 m/s 750 mmHg 84%
07:00 +3°C° 0 mm 6 m/s 751 mmHg 84%
08:00 +3°C° 0 mm 6 m/s 751 mmHg 83%
09:00 +3°C° 0 mm 6 m/s 752 mmHg 83%
10:00 +3°C° 0 mm 5 m/s 752 mmHg 80%
11:00 +5°C° 0 mm 5 m/s 752 mmHg 77%
12:00 +5°C° 0 mm 5 m/s 753 mmHg 74%
13:00 +4°C° 0 mm 4 m/s 753 mmHg 76%
14:00 +4°C° 0 mm 3 m/s 753 mmHg 78%
15:00 +4°C° 0 mm 2 m/s 754 mmHg 80%
16:00 +4°C° 0 mm 2 m/s 754 mmHg 81%
17:00 +3°C° 0 mm 2 m/s 754 mmHg 82%
18:00 +2°C° 0 mm 2 m/s 755 mmHg 84%
19:00 +3°C° 0 mm 1 m/s 755 mmHg 84%
20:00 +3°C° 0 mm 1 m/s 756 mmHg 85%
21:00 +3°C° 0 mm 1 m/s 756 mmHg 86%
22:00 +2°C° 0 mm 1 m/s 756 mmHg 87%
23:00 +1°C° 0 mm 0 m/s 756 mmHg 88%
Voir plus

Nous avons besoin de votre consentement

Meteoprog et ses fournisseurs de services peuvent stocker et accéder à des données personnelles telles que des cookies, des identifiants d'appareils ou d'autres technologies similaires sur votre appareil et traiter ces données pour personnaliser le contenu et les publicités, ainsi que pour fournir des fonctionnalités de médias sociaux et analyser le trafic.

  • Stocker et/ou accéder à des informations sur votre appareil

    Des cookies, des identifiants d'appareils ou d'autres informations peuvent être stockés ou accessibles sur votre appareil aux fins indiquées ci-dessus.

  • Annonces et contenus personnalisés, mesure des annonces et des contenus, connaissance de l'audience et développement de produits

    Les annonces et le contenu peuvent être personnalisés en fonction d'un profil. D'autres données peuvent être ajoutées pour mieux personnaliser les annonces et le contenu. Les performances des publicités et du contenu peuvent être mesurées. Il est possible d'obtenir des informations sur le public qui a vu les publicités et le contenu. Ces données peuvent être utilisées pour développer ou améliorer l'expérience de l'utilisateur, les systèmes et les logiciels.

En cliquant sur "J'accepte", vous autorisez l'utilisation de cookies, des identifiants d'appareils, des balises web ou d'autres technologies similaires. Vos paramètres peuvent être modifiés dans le navigateur de votre appareil.

Dans certains cas, des intérêts légitimes peuvent être invoqués plutôt qu'un consentement. Vous pouvez en savoir plus à ce sujet dans notre Politique de confidentialité et de cookies.